Theta_e
290 290 290 290 290 290 290 290 290 290 290 290 291 291 291 291 291 291 291 292 293 294 295 295 296 296 297 298 298 299 299 299 299 299 300 301 302 301 299 299 299 298 299 302 309 316 321 325 327 328 328 330 331 332 332 333 334 334 334 334 334 334 336 336 337 339 341 339 339 340 339 340 340 339 338 337 336 334 333 333 332 330 329 328 329
289 289 289 289 289 289 289 289 289 289 290 290 290 290 290 290 290 290 291 291 292 293 294 295 295 296 296 297 298 298 299 299 299 300 300 301 301 300 298 297 297 297 296 297 299 304 312 319 324 326 327 328 330 331 332 332 333 334 334 334 334 334 335 335 336 337 339 339 339 340 340 339 339 339 338 337 335 334 333 333 331 330 329 328 329
289 289 289 289 288 288 288 288 289 289 289 289 289 289 289 289 289 290 290 290 291 291 293 293 294 295 296 297 297 298 298 299 299 299 300 300 300 300 299 298 297 297 297 297 297 297 300 307 315 322 326 328 329 330 331 331 332 333 334 334 334 334 334 335 336 336 337 339 338 338 339 339 339 338 338 337 335 334 333 332 331 330 329 328 328
289 289 288 288 288 288 288 288 288 288 288 289 289 289 288 288 288 289 289 289 290 290 291 292 293 294 295 295 296 296 297 298 299 299 299 299 300 300 300 299 299 297 296 296 297 297 297 299 304 312 320 325 327 330 330 330 331 332 332 334 334 334 334 334 334 336 337 338 338 338 339 339 339 337 338 337 335 334 333 332 331 329 328 328 328
288 288 287 287 287 287 287 287 287 288 288 288 288 288 288 288 288 288 288 288 289 290 290 290 292 292 292 293 294 295 295 296 297 298 298 299 299 299 299 299 299 298 298 297 296 297 298 298 297 301 310 318 323 326 329 329 329 330 331 332 334 334 335 334 333 335 336 338 338 338 339 339 338 338 337 337 335 334 333 332 330 329 328 328 329
288 287 287 287 286 286 286 286 287 288 288 288 288 288 287 287 287 287 287 288 288 289 289 290 290 291 291 291 292 293 294 295 296 296 297 297 297 298 298 299 299 299 299 298 297 297 297 298 299 299 301 307 314 319 324 328 329 328 329 331 332 333 334 335 334 334 335 336 339 340 339 338 338 338 337 337 336 334 332 331 330 329 328 328 329
287 287 287 286 285 285 285 285 286 287 287 287 288 288 287 287 287 287 287 288 288 288 288 289 290 290 290 291 291 292 292 293 294 295 295 296 296 296 297 298 298 299 299 299 299 298 298 298 299 302 302 303 309 315 318 324 328 328 328 329 330 331 333 334 334 335 334 334 337 339 339 338 337 338 337 337 336 333 332 331 330 329 328 328 328
286 286 286 285 284 285 285 285 286 286 286 287 287 287 286 286 286 286 287 287 287 287 288 288 289 289 290 290 291 291 292 292 293 294 295 295 296 296 296 296 297 298 298 299 299 299 298 297 297 299 301 301 304 309 313 318 324 327 328 328 328 329 332 334 335 335 335 335 336 337 339 338 337 337 337 337 335 333 332 331 330 329 328 328 327
285 285 284 284 284 284 284 284 284 285 285 285 286 286 285 286 286 286 286 286 286 287 287 288 288 288 288 289 290 291 292 292 293 294 295 295 296 296 297 297 297 297 297 298 299 299 298 298 297 297 298 298 299 301 305 312 320 325 328 329 328 328 330 334 335 334 334 334 335 336 337 338 337 337 337 337 335 333 332 331 330 328 328 328 328
284 284 284 284 283 283 283 283 283 283 284 284 285 285 285 285 285 285 285 285 286 286 286 287 287 287 288 289 289 290 291 292 293 294 294 295 296 296 297 297 298 298 298 298 299 299 299 299 299 298 298 298 299 300 299 303 311 318 324 328 329 328 328 331 334 334 333 333 333 334 336 337 337 337 336 336 335 333 332 331 329 329 328 328 327
284 283 283 283 283 283 283 283 283 283 283 284 284 285 285 284 285 285 285 285 285 285 286 286 286 287 288 288 289 291 291 292 293 293 294 295 296 296 296 297 298 298 299 299 298 299 299 300 300 300 300 300 300 302 303 303 307 311 315 323 328 329 328 328 332 334 332 331 331 333 334 336 338 337 336 336 335 333 331 331 329 329 328 327 327
283 283 283 283 283 283 283 282 283 283 283 284 284 284 284 284 284 284 284 284 285 285 285 285 286 287 289 290 291 291 291 292 293 294 294 295 296 296 297 297 298 298 299 299 299 299 299 299 300 301 301 301 300 301 304 306 309 312 312 317 323 328 329 328 330 332 332 330 330 332 332 334 337 337 336 336 335 333 331 330 329 329 328 327 327
283 283 283 283 282 283 282 283 283 283 283 283 283 283 283 283 284 284 284 284 285 285 285 285 286 288 289 289 290 290 291 292 294 294 294 295 296 296 296 297 297 297 298 298 298 299 299 299 299 300 301 301 302 302 304 305 310 313 313 314 318 323 327 328 329 329 330 331 330 330 331 333 337 337 336 335 334 333 331 330 329 329 328 327 327
283 283 283 282 282 282 282 282 282 282 283 283 283 283 283 283 283 283 284 284 284 285 284 285 287 288 287 288 290 291 292 293 294 295 296 296 296 296 296 297 297 297 298 298 298 299 299 300 301 302 302 303 303 304 305 306 311 315 315 313 314 319 325 326 328 329 328 331 331 330 330 332 336 337 336 335 334 333 331 330 330 328 328 327 327
283 283 283 282 282 281 282 282 282 282 283 283 283 283 283 283 283 283 284 284 284 285 284 285 285 286 286 288 290 290 291 293 295 295 295 295 295 295 295 296 296 297 297 297 298 298 299 300 300 301 302 305 307 307 308 309 312 316 317 316 311 314 323 325 326 330 329 329 331 331 330 331 335 338 337 336 335 333 332 330 330 328 328 327 326
284 283 283 282 281 281 282 282 282 282 282 283 283 283 283 283 283 283 283 283 284 284 284 284 284 284 286 288 288 289 290 293 293 292 292 292 293 293 294 294 295 295 296 296 297 298 298 298 299 299 300 302 303 303 305 308 312 315 316 318 314 311 320 325 325 328 330 329 330 331 330 330 333 337 338 337 335 334 333 331 330 329 328 327 326
284 283 282 281 281 281 282 281 281 281 282 282 282 282 282 282 282 282 282 283 283 284 284 283 283 284 285 286 287 288 289 290 289 289 290 291 292 292 293 293 294 295 295 295 296 297 297 297 298 298 298 299 299 298 299 303 309 315 316 318 318 314 318 324 324 326 329 329 329 331 332 330 331 335 338 337 336 335 334 332 330 329 327 326 326
283 283 282 281 280 281 281 281 281 281 281 282 282 282 282 282 282 282 282 282 282 283 283 283 283 283 283 284 285 286 287 287 287 288 289 290 291 292 292 293 293 294 294 295 295 296 297 297 297 298 298 299 300 301 300 300 303 308 313 316 319 319 319 322 324 324 326 328 328 329 332 331 330 334 337 337 336 335 334 333 331 329 328 327 326
283 283 282 281 280 280 280 280 281 281 281 281 281 281 281 281 281 281 281 281 282 282 283 283 283 283 283 283 283 284 285 285 285 286 287 288 289 290 291 292 292 293 294 295 295 296 295 296 296 297 298 299 299 299 299 300 300 301 304 309 314 319 320 321 323 324 324 326 327 329 331 332 330 332 337 337 336 336 334 333 332 329 328 327 326
283 283 282 281 280 280 280 280 281 281 281 281 281 281 281 281 281 281 281 281 281 282 282 282 283 283 283 283 283 283 283 284 284 285 285 286 287 289 290 291 292 292 293 294 294 294 294 295 296 296 297 297 298 298 298 300 301 301 302 302 306 315 321 321 322 323 324 325 326 328 330 332 331 332 336 338 337 336 334 333 332 330 328 327 326
283 282 281 280 280 280 280 280 281 281 281 281 281 281 280 280 280 280 280 280 281 281 281 281 282 282 282 282 283 282 283 283 283 284 284 285 286 288 289 290 291 292 292 293 293 293 294 294 295 296 297 297 297 298 299 299 301 302 303 301 300 306 314 319 322 323 324 324 324 325 328 331 332 331 334 337 337 336 335 333 332 330 328 327 325
282 281 280 280 280 280 281 281 281 281 281 281 280 280 280 280 280 280 280 280 280 280 280 281 281 281 281 282 282 282 282 283 283 284 285 286 286 287 288 289 290 290 291 292 292 293 293 294 295 296 297 297 297 298 298 298 299 300 302 303 301 302 307 313 319 322 323 324 324 324 324 328 331 332 333 334 336 335 334 334 332 330 328 327 326
281 280 280 280 280 281 281 282 282 282 281 281 280 279 279 279 279 279 279 279 279 279 280 280 280 280 281 281 281 282 282 282 283 284 285 285 286 286 287 288 288 289 290 290 291 292 293 294 294 295 296 297 297 298 298 298 299 300 302 304 304 304 306 311 316 321 322 323 323 324 323 324 329 332 332 333 334 335 334 334 332 330 329 327 325
280 280 280 280 280 281 281 282 282 281 281 280 279 279 278 278 278 278 279 279 279 279 279 279 279 280 280 280 280 281 281 281 282 282 283 283 283 283 285 286 286 287 288 289 290 291 291 292 293 294 295 296 297 298 298 298 298 298 299 299 299 299 301 306 310 315 321 323 323 323 323 323 326 329 332 333 333 334 335 334 332 330 329 327 325
280 280 280 279 280 280 281 281 281 281 280 280 279 278 278 278 278 278 278 278 278 278 279 279 279 279 279 280 280 280 280 280 280 281 281 281 282 282 283 284 285 286 287 288 288 289 290 291 291 292 293 295 296 297 297 297 298 298 298 298 298 297 297 300 303 308 317 323 323 323 323 322 324 327 331 333 332 333 334 333 332 330 328 327 326
279 279 279 280 280 280 281 281 281 281 280 279 278 277 277 277 277 278 278 278 278 278 278 278 278 278 279 279 279 279 279 279 280 280 280 280 281 281 282 283 284 285 285 286 287 288 289 289 290 291 292 293 295 296 296 297 297 297 298 298 298 298 296 298 300 303 312 322 323 322 323 322 323 325 329 332 332 332 333 331 331 329 328 327 327
279 279 279 279 280 280 280 280 280 279 278 278 277 277 277 277 277 277 277 277 277 277 277 277 278 278 278 278 278 279 279 279 279 279 280 280 281 281 281 281 282 283 283 284 286 286 288 289 289 290 290 292 295 295 296 296 296 297 298 298 299 300 298 297 299 300 307 319 324 322 323 322 323 325 327 330 332 332 332 332 331 329 328 328 327
278 278 278 278 279 279 279 278 278 278 277 277 277 276 276 276 276 276 277 277 277 277 277 277 277 277 278 278 278 278 278 279 279 279 279 279 279 280 280 280 280 281 281 282 284 285 286 287 288 289 289 291 293 294 295 296 296 296 297 298 299 301 302 300 301 301 303 314 323 323 322 323 323 324 326 329 332 333 332 332 331 329 328 328 327
277 277 277 277 278 278 277 277 276 276 276 276 276 276 276 276 276 276 276 276 276 276 277 277 277 277 277 278 278 278 278 278 278 278 278 278 278 278 278 279 279 279 279 280 282 283 285 286 287 288 289 290 292 293 295 296 296 297 298 299 299 301 304 303 303 302 301 310 321 323 322 323 323 323 325 328 331 333 333 332 331 329 328 328 327
277 276 276 276 277 276 276 275 275 275 275 275 275 275 275 275 275 275 275 275 275 276 276 276 277 277 277 277 277 277 277 277 277 277 277 277 277 277 277 278 278 278 279 280 281 282 284 285 286 287 288 290 292 294 295 296 297 298 298 299 298 299 302 303 305 306 304 309 318 323 322 322 323 323 324 328 331 332 332 332 331 329 328 328 326
276 276 276 276 275 275 275 275 274 274 274 274 274 274 274 274 274 274 274 274 274 275 275 275 275 276 276 276 276 276 276 276 276 276 276 276 276 277 277 277 278 278 279 279 280 281 283 284 285 286 287 288 290 292 295 296 297 298 298 298 297 296 297 298 301 305 307 310 316 322 322 322 323 323 324 326 330 331 331 331 331 329 328 327 326
276 275 275 275 274 274 274 274 274 274 273 273 273 273 273 273 273 273 273 273 273 273 274 274 274 275 275 275 275 275 275 276 276 276 276 276 276 276 276 277 277 277 278 279 279 280 282 283 284 285 286 287 288 290 293 295 296 297 298 297 296 296 297 298 298 300 305 310 315 320 322 322 322 323 323 325 328 330 329 329 329 329 327 326 326
276 275 275 274 274 273 273 273 273 272 272 272 272 272 272 272 272 272 272 272 272 272 273 273 273 274 274 274 274 274 275 275 275 275 275 275 276 276 276 277 277 277 278 278 279 280 281 282 283 284 285 286 287 289 291 293 294 296 297 298 298 298 300 301 301 300 303 310 315 319 322 322 322 322 323 324 327 329 329 328 328 328 327 326 325
275 275 275 274 273 272 272 272 272 271 271 271 271 271 271 271 271 271 271 271 271 272 272 272 273 273 273 273 273 273 273 274 274 275 275 275 275 275 276 276 276 276 277 278 279 280 281 282 283 284 285 286 288 289 291 292 294 296 297 298 299 299 300 301 302 302 304 310 316 318 321 322 322 322 323 324 326 328 328 328 328 327 327 326 325
275 274 274 273 272 272 271 271 271 270 270 270 270 270 270 270 270 270 271 271 271 271 271 272 273 272 272 272 272 272 272 273 273 273 274 274 275 275 275 276 276 276 276 277 278 279 281 282 284 285 285 287 289 291 292 293 294 296 298 298 299 299 300 301 302 302 303 309 317 319 320 322 323 322 323 324 325 326 327 327 327 327 327 326 325
274 274 274 273 272 271 270 270 270 270 270 270 270 270 270 270 270 270 270 270 270 271 271 272 273 272 271 271 271 272 272 272 272 273 273 273 274 275 276 276 276 276 277 277 278 279 280 281 283 284 286 287 290 291 292 294 295 296 297 298 299 299 299 300 302 302 302 305 314 320 320 322 323 322 323 324 324 325 326 326 326 326 326 325 324
273 274 274 273 271 270 270 270 269 270 270 270 270 270 270 270 270 270 270 270 270 271 271 272 272 271 271 271 271 271 272 272 272 272 273 273 274 275 275 276 276 277 277 278 278 279 281 282 283 284 285 287 289 291 292 294 295 296 297 298 298 298 299 299 301 302 301 303 311 320 321 321 322 322 323 324 324 324 326 326 325 324 325 325 324
274 274 273 272 271 270 270 269 269 269 269 269 270 270 270 270 270 270 270 270 271 271 271 271 271 271 271 271 271 272 272 272 272 272 273 273 274 274 274 275 276 276 277 277 277 278 279 281 283 285 286 287 289 291 292 294 296 296 297 297 298 298 298 299 300 301 302 303 310 319 321 321 322 322 323 324 324 324 325 326 325 323 323 324 324
275 274 272 271 270 269 269 269 269 269 269 270 270 270 270 270 270 270 271 271 271 271 271 271 271 271 271 272 272 272 272 272 273 273 273 273 274 274 274 275 275 276 276 276 277 278 279 280 281 283 286 288 290 291 292 294 295 296 296 297 298 298 298 299 300 301 302 304 310 318 321 321 322 322 323 323 323 324 324 325 325 323 322 322 323
274 273 271 270 269 269 269 269 269 269 269 270 270 270 270 270 271 271 271 271 272 272 272 272 272 272 272 272 272 272 273 273 273 273 274 273 274 274 274 275 275 275 276 276 277 279 280 281 281 282 285 288 291 292 293 294 295 295 296 297 298 298 298 299 300 301 302 304 311 319 320 320 321 321 322 323 323 324 324 323 324 323 322 321 322
273 272 271 270 269 269 269 269 269 269 269 270 270 270 270 271 271 272 272 273 273 273 273 273 273 274 274 274 274 273 273 273 274 274 274 274 274 275 275 275 275 276 276 276 277 278 280 281 282 283 285 287 290 293 294 294 295 295 296 297 298 298 298 298 299 300 300 302 311 319 319 319 320 320 320 321 321 322 323 323 323 323 322 321 322
273 272 271 269 269 269 269 269 269 269 269 269 269 270 271 272 273 273 273 273 274 274 274 274 275 275 275 275 275 275 275 275 274 275 276 276 276 276 276 276 277 277 277 277 277 278 279 281 282 284 285 287 290 293 293 293 294 295 295 297 298 298 298 298 299 300 300 302 310 319 319 319 320 319 319 320 320 321 321 321 321 321 321 321 321
272 271 269 269 269 269 269 269 269 269 269 269 269 271 272 273 273 273 274 274 275 275 275 275 276 276 276 276 276 277 277 276 276 275 276 277 277 277 277 278 278 278 278 278 278 279 279 280 281 283 285 286 290 292 292 293 293 294 295 296 298 299 299 298 299 300 301 304 312 318 318 319 319 319 319 320 320 320 320 320 320 320 320 321 320
271 270 269 268 268 268 268 268 268 268 268 269 270 271 272 273 273 274 275 275 275 276 276 276 276 276 276 276 277 277 277 278 277 277 277 278 278 278 278 278 279 279 279 279 279 279 280 280 281 282 283 285 288 291 292 292 293 294 294 295 297 298 299 299 299 300 301 304 314 319 317 318 319 318 319 319 319 319 319 319 320 319 320 320 320
269 269 268 268 268 268 268 268 268 268 268 268 270 271 272 273 274 275 275 275 276 275 276 276 276 276 276 276 276 276 277 277 278 278 278 278 278 278 278 279 279 279 279 280 280 280 280 280 281 282 283 284 286 289 291 292 292 293 293 293 293 294 296 297 299 300 300 302 311 317 316 316 318 318 317 317 318 318 318 319 319 319 319 320 319
268 268 268 268 267 267 267 267 267 267 268 269 270 271 272 273 274 275 275 275 275 275 275 275 275 275 275 275 275 276 276 276 277 277 278 278 279 278 278 279 279 279 279 279 279 279 280 280 281 282 283 284 285 287 289 291 292 292 292 292 292 292 292 294 295 297 298 299 307 315 316 315 317 318 317 317 317 318 318 318 318 319 319 319 319
267 267 267 267 267 267 267 267 267 267 268 269 270 271 272 273 274 275 275 275 275 275 275 275 275 275 275 275 275 275 276 276 277 277 278 278 279 279 279 279 279 279 279 279 279 279 279 279 280 281 282 284 285 285 287 290 291 291 291 291 291 291 291 292 292 295 298 298 302 311 315 314 316 317 316 317 318 317 317 317 318 319 319 319 319
267 266 266 266 266 266 266 266 267 267 268 269 270 272 273 273 274 275 275 275 275 275 275 275 275 275 275 275 275 275 276 276 276 277 278 279 279 280 280 279 279 278 278 278 279 279 278 279 280 282 282 283 285 285 287 289 290 290 290 290 291 291 291 292 293 295 297 298 301 310 315 313 315 317 316 316 317 316 315 316 317 318 319 318 318
266 266 266 266 266 266 266 266 267 267 268 269 271 272 272 273 274 274 274 275 274 275 275 275 275 275 275 275 275 275 276 276 276 277 278 279 279 280 280 280 279 279 279 279 279 279 279 280 281 283 284 284 285 286 287 289 290 290 290 290 291 291 291 292 293 294 296 297 301 309 314 313 315 316 315 315 316 315 314 315 316 318 318 317 317
266 265 265 265 266 266 266 267 267 268 268 269 271 272 272 273 274 274 274 274 274 275 275 275 275 275 275 275 276 276 276 276 277 278 278 279 280 280 281 281 280 280 279 279 279 279 280 280 281 283 285 285 285 286 287 289 289 290 290 290 291 291 291 291 292 293 295 296 300 308 314 314 314 314 314 313 313 313 314 314 315 316 317 317 317
265 265 264 265 265 266 266 267 267 268 269 270 270 271 272 273 274 274 274 275 275 275 275 275 275 275 275 275 276 276 276 277 277 278 279 279 280 281 281 281 281 281 280 280 280 280 280 281 282 283 285 286 286 287 287 288 289 289 289 289 290 290 290 291 292 293 295 296 301 308 313 313 313 313 313 313 312 312 312 313 314 315 315 316 316
Wind_Speed
14 15 15 16 16 17 17 17 17 18 18 18 19 19 19 18 18 19 19 19 19 18 17 17 17 17 17 18 19 19 20 20 21 22 22 21 21 24 27 29 31 32 32 32 31 30 30 32 33 35 36 35 36 36 35 35 34 34 35 35 34 35 37 38 36 38 39 38 41 42 44 48 47 43 43 43 42 42 42 41 40 39 37 34 35
13 14 14 15 16 16 16 17 17 18 19 19 19 19 19 19 19 19 18 18 18 17 17 17 17 17 17 17 18 19 19 19 20 21 21 21 22 25 28 30 32 34 34 34 34 34 33 32 33 34 35 36 37 37 36 37 36 35 35 35 35 35 37 39 38 39 40 40 42 43 45 49 50 47 46 46 44 43 44 42 41 40 37 36 36
11 12 13 14 15 15 16 16 17 18 18 19 19 20 20 19 19 20 20 20 19 18 17 17 18 18 17 18 18 18 18 19 20 21 21 22 23 24 27 29 31 33 35 35 35 35 35 34 35 34 35 36 37 37 37 38 37 36 36 36 35 36 36 38 39 41 42 41 42 45 46 48 50 49 47 47 46 45 45 44 42 40 37 37 37
10 12 13 13 14 15 16 17 17 18 19 19 20 21 20 19 21 22 21 21 21 21 21 19 18 18 18 19 20 19 19 19 19 20 21 22 23 24 26 27 29 32 34 36 36 36 35 35 36 36 37 38 37 37 38 39 39 38 38 36 35 37 38 38 39 41 42 42 43 47 49 50 51 51 49 48 48 47 47 46 44 42 38 38 38
10 11 12 13 14 15 16 16 17 19 20 20 21 20 19 20 22 21 20 20 19 19 21 20 19 19 20 20 20 20 21 20 20 21 21 22 24 24 25 27 28 30 32 35 37 37 36 36 36 37 38 40 40 39 39 39 39 40 39 37 36 35 38 40 40 41 42 42 43 47 52 55 56 55 53 51 50 50 49 48 46 43 41 41 40
10 11 12 13 13 14 15 16 17 19 20 20 21 21 20 21 22 20 20 19 18 18 19 19 19 20 21 22 20 21 22 21 22 22 23 24 25 25 25 26 27 27 28 32 35 36 36 36 35 35 37 40 42 42 41 40 39 41 41 39 38 36 37 39 40 42 42 43 45 47 54 61 63 60 57 54 52 52 51 49 47 46 44 43 42
10 11 12 12 13 13 14 15 17 19 19 20 21 21 21 22 22 19 19 18 18 21 20 19 19 19 20 20 20 21 22 22 23 24 24 24 25 26 27 27 26 26 27 28 30 32 34 35 34 33 34 37 40 41 42 42 41 41 41 41 40 39 38 37 39 41 41 42 45 48 50 56 61 61 59 58 55 53 53 51 49 48 46 44 44
10 11 12 12 13 12 13 15 17 18 18 19 20 19 20 22 21 19 18 18 19 21 21 20 20 21 21 21 22 23 23 22 23 23 24 24 24 25 27 28 28 28 28 28 28 31 34 35 36 35 35 36 38 41 43 44 44 42 41 42 42 40 38 36 36 39 40 42 45 47 47 49 56 61 60 60 59 56 55 53 51 49 48 45 45
10 11 11 12 13 13 14 15 17 17 17 17 16 17 17 18 18 17 16 17 18 19 20 20 21 23 24 24 25 24 23 22 23 24 24 24 25 26 25 26 28 29 29 28 28 29 31 33 35 36 37 37 38 41 44 45 45 44 42 42 42 42 40 36 35 36 38 40 44 47 49 51 57 63 64 62 60 60 57 55 53 51 49 47 46
10 11 11 12 12 14 15 15 16 15 15 15 15 15 16 15 16 16 15 16 17 17 19 20 21 23 25 27 26 25 24 24 24 24 24 24 25 26 26 25 25 26 27 27 27 27 28 29 31 33 35 36 37 38 42 45 47 47 46 44 42 42 41 39 37 37 37 39 42 46 49 52 54 57 64 64 61 60 59 56 54 52 50 49 48
11 11 11 12 13 14 15 16 15 14 14 14 14 14 15 16 16 16 16 16 16 18 19 20 22 24 26 28 27 25 25 24 25 25 25 25 26 26 26 25 24 23 24 25 26 27 26 27 27 28 30 32 34 36 38 41 45 49 49 48 44 41 41 42 40 37 38 40 41 43 47 53 52 50 57 63 63 62 60 57 55 54 52 51 50
12 12 12 13 14 14 15 15 14 12 12 12 13 14 15 16 15 15 17 16 15 15 16 18 23 25 25 25 23 24 26 26 26 25 25 25 25 24 23 22 22 21 22 23 24 25 26 26 26 26 28 30 32 34 37 39 43 46 49 50 48 44 41 41 42 39 38 40 41 42 45 50 52 50 53 58 63 64 62 59 58 56 54 53 52
13 13 13 14 14 14 14 14 13 12 12 12 14 14 14 13 13 14 15 15 14 13 13 17 21 20 20 23 24 24 24 24 24 25 26 25 22 20 20 21 22 21 22 23 23 25 25 25 26 26 27 28 29 31 34 37 41 45 48 50 50 49 45 42 42 41 40 40 41 43 45 47 50 51 53 55 59 64 63 62 59 57 56 55 54
13 13 14 14 14 14 14 14 13 13 12 12 13 13 13 12 13 13 13 13 14 13 12 13 14 15 17 19 20 19 18 17 20 21 19 17 16 17 20 21 23 23 21 22 23 24 24 24 24 24 25 26 26 27 29 32 37 41 45 49 51 50 49 46 43 42 42 42 42 43 45 47 48 50 54 56 58 61 63 63 60 59 57 55 56
14 14 15 15 15 14 14 13 13 13 12 12 12 12 12 12 11 12 13 14 14 12 10 8 11 15 14 11 11 15 15 9 10 14 14 17 21 23 24 24 24 24 24 24 25 25 24 24 25 26 26 26 25 26 27 29 33 37 40 45 50 51 50 49 46 43 42 44 44 44 45 47 48 51 55 59 60 62 64 63 62 61 58 56 56
14 14 15 16 15 14 13 13 13 13 13 12 12 12 12 12 12 12 13 15 15 13 10 9 10 10 9 8 8 9 11 8 12 21 21 20 25 25 24 25 25 25 25 25 26 25 25 25 25 27 27 28 30 34 35 33 32 35 39 42 46 50 50 50 48 45 43 44 46 46 46 48 49 53 57 60 62 63 65 65 65 64 61 60 57
15 14 15 16 15 14 13 13 13 14 13 12 12 12 12 13 12 12 12 14 17 17 14 11 10 9 7 8 8 7 9 12 17 23 21 16 20 23 22 23 24 25 25 27 27 26 27 27 28 28 29 31 32 34 38 39 36 34 36 39 43 48 50 51 50 48 45 46 47 47 48 49 51 55 59 63 64 64 64 65 66 64 61 59 56
15 15 15 15 15 14 14 14 15 15 14 13 13 13 13 12 12 13 13 13 16 18 17 13 11 13 13 13 12 11 13 15 13 14 21 21 20 21 22 22 23 25 26 27 27 26 26 27 28 28 28 29 30 28 31 36 40 41 38 35 37 43 47 50 51 51 49 47 49 49 49 50 52 55 61 66 68 68 67 66 67 66 62 59 58
15 16 16 15 16 15 15 16 17 18 17 17 16 15 15 15 15 14 15 14 14 17 18 15 13 13 14 16 19 20 19 16 11 10 17 21 20 19 20 21 23 25 28 28 28 28 29 29 30 31 30 29 30 32 33 34 39 45 47 44 40 40 45 49 51 52 51 49 49 50 51 51 52 56 63 68 69 70 71 68 67 69 66 62 61
16 17 16 15 15 15 16 17 19 20 20 20 19 19 18 17 17 16 16 16 15 17 19 16 15 14 13 15 17 19 20 21 20 16 12 15 20 20 19 21 23 25 26 28 29 29 30 30 30 31 32 32 32 32 33 33 33 36 43 48 46 42 42 46 51 52 53 52 50 50 51 52 53 57 63 68 70 71 73 70 68 69 67 64 63
17 17 17 16 15 15 16 18 20 20 21 23 22 22 21 18 17 17 16 17 16 18 19 19 18 17 15 16 17 17 19 21 23 22 16 14 16 17 18 19 21 26 27 26 28 29 29 30 30 31 33 33 33 32 31 31 31 32 36 44 49 48 44 45 50 53 53 54 54 52 51 52 53 55 61 67 71 74 75 74 71 70 68 65 64
17 18 17 16 16 17 19 20 21 22 22 25 26 24 20 17 18 17 17 18 18 18 20 21 20 20 18 17 18 17 15 16 17 20 19 16 15 16 19 19 17 22 28 27 29 30 30 30 30 31 33 32 32 32 32 34 35 35 36 39 44 48 47 45 49 55 56 55 56 56 54 54 52 52 57 63 71 76 77 76 75 74 71 67 65
17 18 17 17 18 19 21 22 23 24 24 25 25 22 20 18 18 18 18 19 19 20 21 22 22 22 21 20 21 20 17 16 17 19 17 14 14 14 18 23 22 24 29 30 30 30 30 31 31 31 33 34 33 33 33 34 35 35 37 38 40 43 45 43 45 53 59 58 57 57 57 55 53 52 55 60 69 76 78 77 78 77 74 71 67
14 15 15 17 19 20 21 23 24 24 25 25 24 23 22 22 19 18 19 19 20 20 22 22 22 23 23 22 23 23 23 23 22 23 22 19 18 13 14 22 22 24 30 28 28 32 32 32 33 34 34 35 35 34 33 33 34 36 40 44 46 48 49 47 46 48 56 60 58 58 58 56 55 54 54 57 66 76 81 83 83 81 78 74 69
13 14 15 17 19 20 21 23 24 24 26 26 26 25 24 22 21 20 20 20 20 21 22 23 24 25 25 24 24 24 26 26 25 25 25 25 22 15 16 21 18 20 28 27 25 30 32 33 34 33 35 36 35 35 35 34 35 37 38 42 44 48 50 51 50 48 52 60 60 58 58 57 56 56 55 56 61 70 79 84 85 83 78 73 69
14 16 17 19 20 21 22 23 24 25 26 26 26 27 25 23 22 22 22 22 21 22 23 25 26 26 27 26 26 26 26 26 26 27 26 26 26 19 15 18 18 18 24 28 27 25 27 31 32 31 34 37 36 36 36 36 37 38 38 40 43 46 49 50 50 49 50 58 61 58 58 57 56 57 57 57 58 62 70 76 79 81 76 69 64
16 17 19 20 20 21 22 23 25 25 26 26 26 26 25 23 22 22 23 22 22 23 24 25 27 27 28 28 27 29 28 27 28 29 30 31 31 28 21 15 15 15 18 22 24 25 29 32 32 32 33 36 36 36 37 37 38 39 38 39 40 42 46 48 50 49 49 55 61 58 58 57 56 58 58 58 58 60 67 72 73 74 74 68 63
16 18 19 19 19 20 22 23 23 24 25 26 25 24 23 22 22 22 23 22 22 24 25 26 27 28 29 29 30 31 30 29 31 33 34 34 33 34 30 20 15 14 14 15 15 20 29 31 31 32 33 35 38 38 38 38 40 41 41 42 41 40 42 45 48 48 47 52 60 60 58 58 57 57 58 59 58 61 68 72 72 72 71 68 66
16 17 18 18 19 20 21 21 21 22 23 24 23 22 22 22 23 23 23 23 23 25 25 26 27 27 28 29 31 33 31 30 33 32 32 33 33 34 34 30 23 15 13 15 14 13 20 25 27 29 30 33 37 38 38 38 38 39 40 40 38 36 36 39 43 47 47 50 58 61 58 59 58 57 58 59 60 64 70 73 75 75 74 71 69
16 17 17 18 19 20 19 18 18 19 21 21 21 21 21 22 23 23 23 23 24 26 24 25 27 26 28 30 31 33 32 31 33 32 32 33 34 34 34 34 31 21 14 15 15 14 19 24 27 30 31 31 33 33 34 34 34 35 37 39 39 37 36 36 37 42 45 49 56 61 59 59 59 59 59 59 62 66 71 75 77 76 74 72 70
16 16 17 17 17 18 16 15 16 17 19 20 20 20 20 21 22 22 22 22 24 26 24 24 25 25 28 30 30 31 31 31 32 32 33 33 34 34 33 33 34 32 25 17 15 18 22 24 28 32 33 34 36 36 35 34 33 35 38 42 44 43 43 42 40 39 42 48 55 60 60 59 59 60 60 60 62 66 69 74 77 76 74 71 70
16 16 17 17 16 17 16 16 17 18 19 20 19 19 20 21 21 22 22 22 24 25 25 24 24 25 28 30 30 30 30 30 31 31 32 32 33 33 33 34 34 35 33 23 16 20 29 33 34 36 36 35 37 39 38 37 36 37 38 40 43 42 40 42 44 42 41 45 54 59 59 59 59 60 62 61 61 66 69 71 73 75 75 74 72
16 17 18 18 18 19 18 18 19 18 19 20 19 19 19 21 21 22 23 23 24 25 25 25 25 27 29 30 30 29 29 30 32 31 31 31 32 32 33 33 33 33 34 28 18 17 28 36 35 36 38 36 37 42 42 41 40 39 38 38 36 34 32 34 38 41 41 43 52 59 60 59 59 60 63 63 62 66 70 71 73 75 77 78 75
16 17 18 19 20 20 19 20 19 18 19 20 19 19 20 21 22 22 22 22 24 25 25 25 26 28 28 29 29 28 27 29 31 31 31 31 32 33 33 32 33 34 33 31 24 16 21 30 33 35 38 36 37 41 41 41 43 41 38 35 30 29 31 31 33 38 39 41 50 60 62 60 60 61 63 64 63 66 71 73 75 78 79 80 79
16 17 19 19 21 20 19 19 19 18 19 19 19 19 20 22 23 23 23 23 24 25 25 27 29 28 28 28 29 28 27 28 30 30 31 32 32 34 35 33 33 34 33 33 29 20 17 24 29 32 33 33 35 37 38 43 45 39 34 32 29 27 30 30 32 36 38 39 47 59 62 60 60 62 63 65 64 66 71 73 77 82 82 80 81
16 18 19 20 20 19 18 18 19 19 19 19 19 20 20 22 23 24 24 24 25 25 26 29 30 29 28 29 29 28 28 28 29 29 30 31 32 32 33 33 33 33 33 33 33 29 23 20 25 33 34 32 34 36 37 41 41 34 29 29 29 28 30 32 33 37 39 39 44 56 62 61 61 62 64 66 66 66 70 72 73 80 86 84 82
16 18 19 20 19 18 18 18 19 20 20 20 20 21 21 22 23 25 25 25 25 26 27 29 29 29 29 30 30 29 29 29 29 29 29 30 31 32 32 32 32 32 32 32 33 34 30 22 24 33 35 33 34 35 38 39 33 29 27 28 29 29 30 33 33 36 39 40 43 54 62 62 62 64 64 67 67 66 69 72 69 72 82 89 85
16 18 19 19 19 19 19 19 20 21 21 20 20 21 21 23 24 24 25 25 27 29 30 29 29 29 30 31 31 31 31 31 31 30 30 31 32 33 33 33 34 34 34 34 33 34 33 29 27 29 30 31 31 33 39 38 29 25 26 25 27 28 29 31 33 35 37 38 42 52 61 61 62 64 65 67 67 66 68 71 69 66 73 85 88
16 17 18 19 19 19 19 20 20 21 21 21 21 21 22 23 23 24 26 28 29 30 31 31 31 32 33 34 34 33 33 33 33 33 33 33 32 32 33 32 32 32 32 32 31 30 30 28 26 28 28 28 29 32 37 34 26 26 26 21 20 24 26 27 29 32 34 36 41 50 59 59 61 64 65 66 66 66 67 68 68 66 68 76 83
16 16 17 19 19 19 19 20 20 20 20 21 21 21 22 22 24 26 27 28 30 30 31 32 32 33 34 35 36 36 36 35 35 35 35 35 33 32 32 31 31 31 29 28 28 27 27 25 24 27 28 26 28 31 30 26 21 21 22 19 16 19 23 24 27 30 32 36 39 46 55 57 58 60 63 65 65 66 67 67 68 70 71 73 77
15 16 17 18 18 18 18 19 19 20 20 21 21 20 22 23 25 26 26 26 28 30 32 33 33 34 35 36 37 37 38 39 39 38 38 38 36 33 32 31 31 31 30 28 27 26 25 20 18 20 20 20 24 24 19 18 18 17 19 19 17 18 22 24 28 32 32 35 37 41 49 52 53 55 57 60 63 66 67 67 70 75 78 77 78
15 17 17 17 17 17 17 18 19 19 19 21 22 22 24 26 27 29 28 28 28 29 32 34 35 35 35 36 38 38 39 41 41 40 41 42 42 41 39 36 35 34 31 28 27 27 23 16 14 15 12 12 19 21 18 19 20 20 20 18 16 17 17 16 23 32 34 36 36 36 41 48 51 49 52 55 59 64 66 67 72 77 80 80 80
15 16 16 17 16 16 17 18 19 20 21 24 25 25 26 28 29 30 32 31 30 30 32 33 34 34 34 35 37 37 38 39 40 40 42 42 43 44 45 44 42 41 37 32 29 29 26 19 18 17 11 10 19 23 21 20 20 19 19 19 16 14 10 8 12 21 28 32 33 31 33 45 50 46 48 53 56 62 65 66 72 78 80 80 79
14 15 16 17 17 17 17 18 19 20 23 27 27 26 28 30 30 31 32 32 31 31 33 33 34 35 35 35 35 35 35 35 36 38 40 41 41 42 44 46 46 46 45 42 37 33 29 23 20 19 16 15 21 23 21 19 19 19 18 18 16 13 11 8 8 14 25 31 30 27 25 39 49 44 43 50 55 61 65 69 75 79 81 81 79
14 15 17 17 18 18 17 18 20 22 25 28 27 27 30 31 31 32 32 31 31 33 33 34 35 35 35 36 36 34 34 34 34 36 37 38 39 39 41 44 45 45 46 47 46 42 38 32 26 25 25 23 23 24 20 17 18 18 15 14 15 16 14 11 11 19 30 35 27 21 18 31 45 41 36 43 52 59 63 71 79 81 81 82 80
13 15 17 18 18 19 19 20 22 24 27 29 28 29 31 31 32 33 31 30 31 33 33 34 35 35 36 36 36 36 35 34 34 34 36 37 37 37 38 38 39 41 41 43 45 44 42 39 35 34 33 30 29 29 26 21 20 19 16 15 16 18 19 20 25 30 35 37 29 18 13 23 40 38 33 43 52 57 63 73 81 83 81 81 79
13 14 16 17 19 20 20 21 23 25 28 29 28 29 30 32 33 33 30 29 30 31 32 34 35 36 36 36 36 36 36 35 34 34 35 36 36 36 36 32 32 35 36 37 38 38 38 37 37 38 37 36 35 33 31 29 27 23 21 21 21 22 24 26 28 31 32 34 33 21 9 19 37 36 32 45 53 53 62 74 80 83 83 81 80
13 14 16 17 20 20 20 22 25 29 29 27 26 28 30 31 33 31 29 29 30 31 33 34 35 37 37 36 36 37 36 36 36 36 38 38 37 37 36 32 29 32 35 36 35 36 37 36 35 36 37 37 37 35 34 34 32 28 24 24 24 22 20 16 14 18 23 29 33 26 12 17 33 35 32 43 49 45 55 69 75 79 81 79 78
13 15 16 17 18 18 20 23 27 29 29 26 25 28 29 31 32 31 29 29 29 31 33 34 35 36 37 37 37 38 38 38 38 38 39 39 39 37 34 30 27 27 31 33 33 34 37 38 39 39 39 40 39 37 37 35 33 30 24 19 19 16 12 9 8 10 16 27 34 30 18 15 28 35 32 38 46 46 50 59 67 74 76 75 75
13 15 16 16 16 18 22 26 26 26 26 25 25 27 28 30 32 30 29 30 30 30 33 35 35 36 37 38 38 39 40 40 40 41 41 40 39 36 34 30 26 24 26 29 30 31 31 32 36 37 37 40 39 38 40 37 34 32 26 19 18 15 9 8 8 9 12 24 36 33 18 18 28 34 31 28 32 41 51 55 61 69 71 70 71
13 14 14 14 16 19 23 24 23 23 24 24 24 26 28 31 31 29 28 30 30 30 31 34 35 36 37 37 37 38 39 40 41 42 42 40 38 37 37 32 25 24 28 29 28 28 27 26 29 29 29 32 34 35 37 37 34 34 31 26 26 23 14 8 8 8 7 15 30 31 16 22 28 30 29 22 12 19 40 51 53 60 64 64 66
Wind_Direction
8 8 8 7 4 4 4 3 3 4 2 1 359 358 358 356 353 350 346 342 336 331 325 321 320 315 310 307 307 307 305 304 303 301 298 294 290 289 288 286 283 281 278 276 274 272 269 267 267 267 266 265 263 262 262 262 262 263 263 262 261 258 255 253 248 248 242 232 228 224 220 216 209 208 205 201 201 198 195 193 191 192 192 189 189
5 4 4 3 2 1 0 0 1 360 360 359 357 355 355 354 351 347 342 338 334 330 325 319 315 312 309 304 303 302 299 298 298 298 297 294 293 293 293 292 289 286 283 280 276 273 271 268 266 266 267 265 263 261 260 261 261 261 262 261 260 258 255 253 248 245 244 238 231 225 222 217 211 208 206 202 201 199 196 194 192 193 192 189 189
359 358 359 359 358 356 355 356 356 356 356 355 353 352 352 350 347 345 342 338 334 330 325 319 316 313 309 304 303 300 296 294 292 293 292 292 292 292 295 295 293 291 288 284 281 276 272 269 267 265 264 263 263 262 260 259 259 260 259 259 259 257 254 253 250 244 243 242 236 229 224 220 214 209 206 202 199 197 196 194 192 194 193 188 190
352 352 355 356 354 352 352 352 351 351 351 349 350 351 349 345 343 342 340 337 334 332 330 323 315 312 309 306 305 300 297 294 290 290 289 289 290 290 292 293 293 292 291 288 284 281 276 271 268 267 265 263 261 261 261 259 258 258 258 258 257 256 253 251 250 245 240 239 238 235 228 220 214 209 206 203 200 197 196 194 193 195 193 189 190
347 348 351 350 350 349 348 348 346 346 347 347 348 348 345 342 341 339 336 333 329 326 327 322 314 312 310 307 305 301 299 295 290 289 288 288 288 287 288 289 290 290 291 290 287 284 281 276 271 267 266 264 262 260 259 259 258 257 257 257 256 255 253 249 249 248 242 238 237 237 231 220 213 208 205 203 201 197 195 195 195 195 192 189 189
340 343 345 344 345 343 342 343 342 343 346 345 344 345 342 339 339 335 331 329 324 321 320 314 310 309 309 307 302 298 298 294 291 290 288 289 289 287 285 285 286 285 286 288 288 286 283 280 276 270 266 266 265 263 260 259 258 257 256 256 255 254 253 250 248 248 246 241 237 237 235 223 213 208 204 203 200 196 195 196 195 194 191 189 189
333 336 338 339 338 334 334 335 337 341 342 341 341 342 339 337 337 332 328 325 320 321 318 310 307 304 303 302 297 295 295 292 290 289 288 288 286 286 287 285 282 280 281 282 284 285 283 280 277 273 268 265 265 266 263 259 257 257 256 254 253 252 253 253 248 246 248 245 239 239 238 226 214 209 205 202 199 196 195 195 194 193 191 189 189
326 330 332 333 331 326 325 327 334 338 337 337 339 338 334 333 334 329 324 321 317 319 316 311 307 303 302 300 297 296 292 289 288 287 286 285 282 282 284 285 283 281 280 278 278 280 282 282 279 276 271 266 262 262 263 260 257 257 257 255 253 251 250 252 250 245 247 248 244 242 239 229 217 210 206 203 198 195 195 195 194 193 191 189 189
319 322 325 323 323 321 320 323 330 333 331 332 332 330 330 327 326 323 317 315 313 312 312 310 306 304 304 300 298 295 289 284 284 285 284 281 280 280 278 278 281 283 282 279 276 278 280 281 282 280 276 271 266 262 261 260 258 256 256 255 254 252 249 249 249 246 245 247 246 244 240 233 222 213 207 203 198 194 194 195 193 193 192 189 189
312 315 317 316 316 316 317 320 324 327 324 322 322 324 325 320 316 315 312 309 306 307 308 307 304 302 300 298 296 291 287 284 281 281 279 276 276 277 276 274 275 276 277 278 278 277 278 278 280 280 278 274 271 268 264 261 259 256 254 253 253 253 251 247 247 247 245 246 246 243 241 237 232 221 209 202 198 195 194 195 193 193 192 190 190
305 309 313 313 314 314 313 315 317 319 314 313 318 319 318 316 311 307 307 305 302 304 306 306 304 299 295 297 295 288 284 282 279 276 273 272 273 274 275 273 272 271 271 274 276 277 277 278 278 277 276 275 273 270 267 264 261 258 255 252 252 252 251 247 245 246 245 245 244 241 241 240 238 232 216 202 198 196 195 195 194 192 192 190 190
300 306 309 311 312 310 307 308 308 306 303 303 308 310 310 310 305 302 306 305 302 301 303 307 306 299 295 294 292 287 284 279 273 272 271 270 270 272 273 271 272 272 271 271 271 273 274 276 276 273 273 275 274 269 265 263 261 258 256 253 251 250 250 246 243 244 245 244 242 240 241 242 239 233 221 207 199 196 195 195 194 192 192 191 190
299 303 305 307 307 303 300 300 299 294 291 293 298 302 303 301 299 301 302 303 302 301 304 310 308 306 308 303 294 288 283 276 268 265 268 269 268 270 272 272 274 274 275 274 272 272 273 274 275 273 272 273 274 272 266 263 260 257 256 253 251 250 248 246 243 242 242 242 240 240 240 241 239 228 218 210 201 196 195 194 193 192 192 191 190
298 300 301 303 302 297 294 294 294 293 288 288 293 296 297 296 299 303 302 298 297 298 304 310 310 315 317 309 306 302 289 272 265 263 263 268 270 274 277 277 279 280 279 277 276 275 274 274 274 274 274 273 273 273 270 265 259 256 254 252 250 250 248 246 245 243 241 238 237 239 238 237 237 227 215 209 206 201 197 195 194 194 192 191 191
294 298 300 302 301 296 292 288 287 287 286 288 292 294 297 297 298 302 304 300 295 294 298 299 304 312 310 299 314 321 308 288 271 275 278 280 279 279 279 278 277 280 281 279 277 277 275 274 275 274 274 273 272 273 273 270 263 259 256 253 249 249 248 246 245 243 240 238 236 236 236 234 232 225 216 210 207 205 201 198 195 194 192 191 191
291 296 298 300 300 292 285 282 281 286 289 290 291 291 295 298 299 301 303 304 302 299 295 285 287 302 311 303 308 306 298 320 322 301 292 282 278 276 274 276 277 277 278 278 277 277 276 275 275 274 272 270 270 271 271 272 270 265 260 256 252 249 247 245 244 242 239 237 236 235 233 232 230 224 218 213 208 206 205 202 198 194 192 192 191
292 296 295 297 296 285 278 280 286 294 295 291 289 292 296 298 299 299 297 298 299 299 294 282 269 261 262 285 301 293 291 320 323 305 299 289 281 280 275 273 276 276 276 275 274 275 275 275 273 271 271 271 270 269 266 266 268 268 264 259 254 250 246 244 243 242 241 238 235 234 231 230 229 224 220 214 210 208 206 205 201 196 192 192 192
295 297 296 297 296 290 287 291 298 304 302 297 294 296 298 296 296 295 291 287 288 292 290 283 271 255 243 245 256 264 287 311 318 305 305 299 285 281 277 274 276 276 275 273 272 272 272 274 274 272 271 271 268 266 265 263 262 262 263 263 258 252 246 244 244 242 242 241 237 234 231 229 227 225 221 214 210 208 207 205 202 198 195 192 191
298 299 300 300 300 299 300 303 308 310 309 307 303 302 301 298 296 290 285 283 279 281 285 288 283 265 249 245 248 252 261 278 286 293 305 302 292 282 276 277 277 274 273 271 271 271 272 272 273 272 271 269 267 266 265 263 261 259 259 261 264 259 250 244 243 241 241 242 239 235 232 229 226 225 222 214 209 207 205 204 202 199 196 192 190
299 301 302 301 300 301 303 308 312 313 312 311 306 304 301 295 290 284 279 277 272 274 281 285 283 276 267 258 255 255 253 255 260 268 285 297 297 289 278 278 278 273 272 272 271 270 271 271 270 271 270 266 265 266 264 261 261 260 257 256 259 261 256 248 243 241 240 240 239 236 233 230 226 224 222 214 209 206 204 204 203 200 195 192 191
301 303 304 303 302 303 307 312 314 313 312 310 308 305 298 288 282 277 273 272 268 269 274 277 276 276 276 271 265 261 258 256 255 256 259 271 287 292 289 287 282 276 273 273 273 271 270 270 269 269 268 266 264 261 261 261 260 260 260 257 255 257 259 254 246 241 239 239 239 237 234 231 227 224 222 217 212 208 205 203 202 200 196 193 192
303 304 306 307 307 310 314 317 316 313 311 311 311 306 296 283 278 275 270 270 269 266 266 270 272 271 269 269 268 263 261 260 253 250 254 257 268 282 289 290 286 280 277 274 273 272 270 269 268 267 265 264 263 259 260 262 261 259 259 258 254 254 257 259 251 242 239 239 239 238 236 232 229 226 224 221 217 211 206 202 201 200 197 194 193
299 302 305 307 310 315 318 318 317 314 312 311 307 301 293 286 281 275 270 269 269 268 266 266 267 267 264 259 259 259 257 258 257 256 257 257 265 273 280 285 285 281 278 276 273 271 270 268 267 267 265 263 262 261 260 261 261 260 259 258 256 254 254 257 256 246 238 238 238 238 237 233 231 229 225 223 219 213 207 204 202 199 196 193 192
287 290 295 302 308 314 317 317 316 313 310 308 302 297 294 291 284 275 271 269 267 267 266 265 264 264 263 258 256 257 255 255 258 258 258 259 264 267 272 281 285 280 277 276 274 271 268 266 266 265 264 264 262 260 261 261 262 264 263 262 260 259 256 255 259 253 241 236 236 236 236 234 230 228 227 223 219 215 210 205 201 197 194 191 190
274 280 289 298 305 310 314 314 313 311 308 306 302 299 296 289 282 277 271 268 266 264 263 263 264 263 264 263 259 257 255 255 256 256 257 260 261 263 267 271 275 280 280 278 273 272 268 265 264 262 262 264 263 262 261 261 263 265 266 265 263 261 260 257 257 259 248 236 233 234 234 234 230 226 226 224 220 218 212 203 196 193 192 189 189
277 285 294 300 306 311 313 313 311 311 309 305 302 300 297 288 281 277 272 268 267 264 262 264 264 263 264 264 262 260 258 257 257 255 256 259 260 262 267 268 267 274 281 278 271 269 267 264 261 260 262 263 261 261 261 260 264 266 265 267 265 261 261 260 257 259 254 238 231 232 232 232 230 226 225 224 222 221 214 203 194 191 191 191 189
278 289 297 302 308 312 312 312 311 310 307 304 302 299 295 288 279 275 271 269 267 264 263 263 263 262 261 261 261 262 261 260 260 258 259 260 261 262 264 268 269 270 275 276 270 263 261 264 264 261 262 263 261 261 261 262 263 265 266 267 268 263 261 261 257 257 256 241 230 230 231 230 229 226 225 225 223 219 211 203 198 194 191 192 191
278 287 295 301 308 311 312 312 310 308 305 303 300 294 289 283 277 273 271 270 269 267 265 264 264 263 262 261 263 264 263 263 263 261 260 259 259 261 260 259 265 271 273 274 272 264 259 261 265 263 260 260 261 262 262 264 263 263 266 265 263 262 260 260 257 254 256 246 232 228 230 229 228 227 225 223 221 215 207 201 197 195 192 193 192
282 288 295 302 309 312 313 310 305 304 302 300 295 288 282 279 275 273 273 273 273 270 267 267 265 265 265 265 265 265 265 265 264 261 258 257 258 258 256 254 255 262 272 272 271 270 264 263 265 266 264 260 260 260 258 260 262 260 262 263 261 262 260 258 257 255 255 250 234 226 227 228 227 227 224 222 219 211 205 201 196 194 194 194 193
286 290 297 305 311 312 310 303 296 297 297 294 288 282 279 277 275 275 274 275 275 272 269 269 268 269 269 268 266 265 264 265 264 260 257 257 256 255 254 253 251 251 261 271 268 268 271 269 265 266 269 267 267 266 261 259 260 261 264 269 271 272 270 265 262 257 257 254 239 226 225 227 226 226 224 220 217 210 203 200 197 195 194 193 191
289 292 301 307 309 309 302 293 290 291 292 288 284 279 277 276 277 277 275 274 274 272 270 271 270 271 271 270 266 264 265 265 263 260 258 257 255 255 255 253 251 252 258 267 271 269 271 272 270 269 268 268 270 271 269 264 262 262 266 270 273 276 277 275 270 262 258 256 243 227 223 225 225 225 224 220 216 211 204 199 197 194 192 192 190
293 298 307 309 308 307 302 297 295 292 288 284 282 278 276 275 276 277 276 275 274 272 272 272 271 272 273 271 267 266 266 264 262 260 260 258 256 255 255 254 252 253 254 257 265 270 270 270 270 270 267 266 268 269 272 272 267 263 263 267 272 276 278 278 274 267 260 256 246 230 222 223 224 224 223 220 215 211 206 201 197 193 191 191 190
299 304 311 312 312 311 308 305 300 293 286 283 282 279 276 276 277 277 276 276 274 273 274 273 273 275 274 271 269 268 267 265 263 263 262 260 258 256 255 255 255 256 255 256 261 267 269 267 266 268 268 265 265 265 267 270 268 263 263 265 268 270 272 274 273 269 264 258 247 233 223 221 223 223 223 220 216 210 207 203 198 194 192 190 189
303 309 314 314 316 314 310 306 300 290 284 283 283 280 278 278 279 278 278 277 276 275 275 275 276 277 273 270 271 270 268 267 266 265 264 262 261 259 256 255 256 259 258 258 264 269 269 267 265 266 266 262 260 260 260 263 263 260 261 262 263 266 268 269 270 268 267 262 248 233 224 220 221 223 222 221 217 210 206 202 198 195 193 190 188
308 314 316 316 317 315 307 303 299 290 285 284 284 282 280 280 281 281 279 277 277 275 274 278 281 278 272 269 271 271 270 269 267 266 265 265 264 261 257 256 257 259 257 256 259 264 270 271 268 266 265 261 260 260 261 260 258 256 258 262 263 266 268 268 268 267 266 264 251 234 223 219 220 221 222 221 218 213 206 203 199 196 193 190 187
310 315 318 319 318 312 303 298 295 291 287 286 287 286 283 283 283 284 282 278 276 274 274 280 283 278 272 270 270 270 270 269 268 266 265 265 264 263 261 259 258 258 257 255 255 256 260 266 268 267 267 265 263 265 266 262 257 255 258 263 265 267 270 271 270 268 266 266 256 236 223 219 219 220 221 220 218 214 209 205 203 198 193 190 187
311 315 318 320 317 311 304 297 294 293 291 289 289 288 286 286 285 284 283 278 276 277 278 281 280 275 272 270 269 270 269 267 267 265 264 264 264 264 265 264 263 263 262 262 261 262 264 264 262 261 261 263 266 267 267 263 259 260 261 264 266 269 274 274 272 270 268 269 261 238 223 219 219 218 220 220 218 215 211 209 209 203 194 188 186
311 316 319 321 318 312 307 301 298 297 295 292 291 291 289 290 288 285 284 282 281 282 280 279 277 273 271 270 268 267 265 264 265 264 264 265 263 262 264 264 265 265 265 266 266 266 268 270 271 266 259 258 262 266 265 260 257 262 266 268 269 270 275 275 273 271 267 270 262 237 220 217 218 217 218 218 217 215 211 209 209 206 195 187 183
315 319 320 320 316 312 308 305 302 299 296 294 292 293 292 292 290 288 288 287 284 281 276 272 272 270 268 267 265 263 260 260 263 264 265 265 263 262 263 264 265 264 264 266 266 265 264 265 271 273 269 263 259 261 260 256 256 263 267 272 274 273 274 271 271 271 269 273 262 234 218 216 216 215 216 216 215 213 210 207 204 201 195 187 182
318 320 321 320 315 311 309 307 302 296 294 294 293 293 293 295 294 291 291 289 286 284 280 275 272 269 268 266 262 259 257 257 258 261 262 261 260 261 263 263 264 264 265 267 268 269 265 261 260 263 268 270 265 260 256 253 258 263 263 267 269 275 280 276 273 271 271 276 261 228 213 214 214 214 214 214 213 211 207 204 200 194 191 186 181
322 322 322 321 315 310 305 302 298 294 292 292 293 293 294 296 297 294 292 289 287 286 284 280 276 273 272 269 263 258 255 253 252 255 258 257 256 257 260 263 262 263 265 266 267 270 269 266 260 255 260 268 266 263 258 253 257 262 268 270 269 276 281 280 279 274 271 275 259 222 207 209 210 211 212 210 209 207 202 199 195 189 186 184 180
326 323 322 319 314 306 299 297 296 294 291 290 292 294 295 297 298 297 295 291 286 283 282 281 278 275 275 273 269 265 260 254 252 254 258 258 256 253 255 261 262 260 260 261 263 266 267 270 270 263 258 261 262 264 263 259 259 264 272 275 275 280 279 278 280 275 272 271 254 220 203 206 206 207 208 207 205 201 197 193 189 185 182 181 178
326 323 320 314 309 303 299 297 297 295 293 295 297 297 298 300 300 298 296 293 289 286 284 283 281 280 279 277 274 273 269 261 254 254 257 259 258 256 256 259 262 262 259 259 261 262 262 264 269 269 268 268 268 265 262 261 262 263 272 278 281 282 271 267 280 276 277 272 246 215 201 204 204 202 203 202 199 195 192 188 184 181 179 178 176
324 320 316 310 307 306 302 299 299 297 296 300 302 301 302 304 303 300 298 295 293 291 289 287 286 286 286 284 281 278 276 270 261 257 259 261 259 258 259 261 263 263 262 261 262 262 261 261 263 264 263 270 275 269 260 260 265 267 275 281 285 291 279 266 266 269 281 277 244 211 199 201 200 198 199 197 193 190 187 183 181 178 176 175 175
322 316 313 310 309 309 304 301 302 300 301 305 305 304 306 307 306 304 301 297 295 294 293 292 290 289 288 287 285 282 279 278 272 266 267 267 262 260 262 263 262 262 262 261 261 261 261 262 261 260 259 262 270 274 270 267 267 270 278 281 287 298 294 286 281 272 280 284 257 211 192 196 193 190 189 186 184 183 181 179 178 176 174 174 174
319 314 312 310 310 310 308 307 306 303 307 311 308 305 307 308 307 307 303 299 297 295 295 294 292 290 288 287 285 283 280 278 276 272 271 270 266 263 264 262 259 259 260 260 260 260 260 259 258 259 260 258 260 269 274 274 270 268 273 281 287 295 293 292 294 286 284 285 267 225 184 188 186 180 177 176 176 177 177 175 175 173 172 172 172
314 312 311 309 309 310 312 314 311 307 309 311 307 306 308 309 309 309 305 300 298 296 295 294 291 289 288 285 284 283 282 279 276 275 273 271 268 265 261 258 256 256 258 258 259 260 259 258 256 256 258 258 256 261 267 271 272 267 269 278 283 290 293 292 295 291 285 284 270 243 190 177 180 174 169 171 172 173 173 172 172 171 170 171 172
315 313 312 311 310 309 313 318 316 312 311 309 306 307 310 311 311 310 306 301 299 296 295 294 292 290 288 286 284 282 281 280 277 275 275 273 271 266 261 256 254 255 256 257 258 260 260 259 257 254 254 256 255 256 259 264 269 269 272 279 279 284 291 289 296 292 285 289 276 246 201 170 177 169 162 167 166 166 168 169 169 169 168 170 173
318 317 315 314 312 310 312 318 318 313 310 309 308 308 310 312 313 312 307 303 300 297 296 295 294 293 290 287 285 283 282 281 278 276 276 274 273 271 265 258 252 249 252 257 259 261 261 260 259 256 253 252 252 253 255 258 263 266 271 278 277 283 289 276 293 294 287 298 284 246 203 165 171 163 153 159 160 159 163 165 166 168 169 171 173
317 319 320 314 309 310 315 320 319 309 303 305 308 309 310 313 315 313 309 305 301 297 298 298 296 295 293 290 289 286 284 283 280 278 277 275 272 270 266 261 254 246 249 256 261 264 262 262 264 262 254 250 249 250 253 255 259 262 264 268 273 283 285 269 289 296 289 297 284 254 207 154 160 157 146 147 152 155 160 163 165 168 170 172 173
318 320 322 314 310 314 317 318 314 303 299 303 308 310 313 316 317 315 312 308 303 300 301 301 299 298 297 295 292 289 286 285 284 281 279 277 273 270 266 262 254 249 253 255 259 265 266 262 263 265 259 250 245 246 250 254 257 259 258 262 266 269 267 263 281 289 293 294 278 258 209 151 154 158 149 141 135 150 156 159 163 166 168 171 172